Overview Statistics Trail Chart Weather Telemetry Raw packets
 

This is the latest recevied weather packets stored in our database for station/object HS3PIK-2. If no packets are shown the sender has not sent any weather packets the latest 10 day(s).

<< 9 10 11 12 13 14 15 >>
Time Temp. Humidity Pressure Rain* Wind** Luminosity Snow
1788606546 31.67° C 73% - - - 0 W/m² -
1788606214 31.11° C 73% - - - 0 W/m² -
1788605889 31.11° C 74% - - - 0 W/m² -
1788605562 31.11° C 74% - - - 0 W/m² -
1788605234 31.11° C 73% - - - 0 W/m² -
1788604904 31.67° C 73% - - - 0 W/m² -
1788604579 31.67° C 72% - - - 0 W/m² -
1788604257 31.67° C 71% - - - 0 W/m² -
1788603930 31.67° C 70% - - - 0 W/m² -
1788603600 32.22° C 69% - - - 0 W/m² -
1788603267 32.78° C 68% - - - 0 W/m² -
1788602934 33.33° C 68% - - - 0 W/m² -
1788602607 32.78° C 66% - - - 0 W/m² -
1788602280 33.33° C 66% - - - 0 W/m² -
1788601950 33.89° C 65% - - - 0 W/m² -
1788601622 33.89° C 64% - - - 0 W/m² -
1788601290 34.44° C 62% - - - 0 W/m² -
1788600782 35.56° C 60% - - - 0 W/m² -
1788600455 35.56° C 60% - - - 0 W/m² -
1788600122 35.56° C 59% - - - 0 W/m² -
1788599792 35.56° C 60% - - - 0 W/m² -
1788599465 35.56° C 59% - - - 0 W/m² -
1788599137 35.56° C 61% - - - 0 W/m² -
1788598810 34.44° C 64% - - - 0 W/m² -
1788598480 34.44° C 65% - - - 0 W/m² -

* Rain since midnight (hover to see other rain measurements)
** Current wind speed in m/s (hover to see current wind gust speed)